Location: Sankt Anna
(58.3452°N, 16.7040°E)
Time: 16:45:22
(UTC+02:00)

DX 1 - Pass Details

Date: 27 May 2019
Orbit: 620 x 631 km, 98.4° (Epoch: 25 June)

Event Time Altitude Azimuth Distance (km) Brightness Sun altitude
Rises 02:01:28 0° 116° (ESE) 2,915 ? -9.1°
Reaches altitude 10° 02:04:04 10° 101° (E) 2,013 ? -9.0°
Maximum altitude 02:07:21 21° 52° (NE) 1,418 ? -8.8°
Drops below altitude 10° 02:10:40 10° 3° (N) 2,026 ? -8.7°
Sets 02:13:16 0° 348° (NNW) 2,940 ? -8.6°
